This is the latest recevied weather packets stored in our database for station/object KE0LFX. If no packets are shown the sender has not sent any weather packets the latest 10 day(s).
| Time | Temp. | Humidity | Pressure | Rain* | Wind** | Luminosity | Snow |
|---|---|---|---|---|---|---|---|
| 1777926351 | 26.67° C | 37% | 1002.9 hPa | 0 mm | - | 130 W/m² | - |
| 1777926048 | 27.22° C | 35% | 1002.7 hPa | 0 mm | - | 186 W/m² | - |
| 1777925745 | 27.22° C | 35% | 1002.9 hPa | 0 mm | - | 613 W/m² | - |
| 1777925438 | 27.78° C | 34% | 1003.1 hPa | 0 mm | - | 672 W/m² | - |
| 1777925133 | 27.22° C | 34% | 1003 hPa | 0 mm | - | 666 W/m² | - |
| 1777924831 | 26.67° C | 35% | 1003.3 hPa | 0 mm | - | 713 W/m² | - |
| 1777924527 | 26.11° C | 35% | 1003.1 hPa | 0 mm | - | 110 W/m² | - |
| 1777924223 | 26.67° C | 34% | 1003.3 hPa | 0 mm | - | 144 W/m² | - |
| 1777923920 | 27.22° C | 35% | 1003.3 hPa | 0 mm | - | 687 W/m² | - |
| 1777923615 | 27.22° C | 34% | 1003.3 hPa | 0 mm | - | 759 W/m² | - |
| 1777923312 | 26.67° C | 35% | 1003.2 hPa | 0 mm | - | 721 W/m² | - |
| 1777923011 | 27.22° C | 35% | 1003.2 hPa | 0 mm | - | 228 W/m² | - |
| 1777922709 | 27.22° C | 34% | 1003.5 hPa | 0 mm | - | 199 W/m² | - |
| 1777922407 | 27.22° C | 34% | 1003.3 hPa | 0 mm | - | 216 W/m² | - |
| 1777922104 | 26.67° C | 34% | 1003.5 hPa | 0 mm | - | 207 W/m² | - |
| 1777921800 | 26.67° C | 35% | 1003.6 hPa | 0 mm | - | 729 W/m² | - |
| 1777921496 | 26.67° C | 35% | 1003.3 hPa | 0 mm | - | 712 W/m² | - |
| 1777921192 | 26.67° C | 35% | 1003.5 hPa | 0 mm | - | 745 W/m² | - |
| 1777920890 | 27.22° C | 34% | 1003.7 hPa | 0 mm | - | 730 W/m² | - |
| 1777920586 | 27.22° C | 35% | 1003.4 hPa | 0 mm | - | 511 W/m² | - |
| 1777920282 | 26.67° C | 34% | 1003.6 hPa | 0 mm | - | 244 W/m² | - |
| 1777919977 | 26.67° C | 35% | 1003.6 hPa | 0 mm | - | 810 W/m² | - |
| 1777919675 | 26.67° C | 35% | 1003.7 hPa | 0 mm | - | 760 W/m² | - |
| 1777919373 | 26.67° C | 34% | 1003.6 hPa | 0 mm | - | 210 W/m² | - |
| 1777919069 | 26.67° C | 36% | 1003.6 hPa | 0 mm | - | 266 W/m² | - |
* Rain latest hour (hover to see other rain measurements)
** Current wind speed in m/s (hover to see current wind gust speed)